FW4758 Weather Reports


Display with metric or nautical units.
time (UTC)temp
F
wind
direction
speed
MPH
gust
MPH
rain 1hr
in
rain 24hr
in
rain mn
in
humidity
%
barometer
mb
20260502203003 73 57 4.0 12.0 0.00 0.01 0.01 44 1019.8
20260502201502 73 238 4.0 8.0 0.00 0.01 0.01 46 1019.9
20260502200002 73 292 3.0 7.0 0.00 0.01 0.01 45 1020.0
20260502194501 73 306 2.0 11.0 0.00 0.01 0.01 46 1020.3
20260502193100 73 16 4.0 8.0 0.00 0.01 0.01 40 1020.3
20260502191601 73 270 4.0 8.0 0.00 0.01 0.01 45 1020.4
20260502190058 72 19 3.0 9.0 0.00 0.01 0.01 41 1020.5
20260502184601 72 47 6.0 10.0 0.00 0.01 0.01 43 1020.7
20260502183053 71 350 6.0 12.0 0.00 0.01 0.01 43 1020.9
20260502181608 71 23 5.0 10.0 0.00 0.01 0.01 43 1021.2
20260502163036 67 355 3.0 7.0 0.00 0.01 0.01 64 1022.2
20260502161534 66 292 3.0 6.0 0.00 0.01 0.01 61 1022.1
20260502151523 63 257 4.0 9.0 0.00 0.01 0.01 72 1022.0
20260502123050 49 297 2.0 4.0 0.01 0.01 0.01 85 1020.8
20260502121549 47 271 1.0 3.0 0.01 0.01 0.01 86 1020.7
20260502114550 46 244 2.0 4.0 0.00 0.00 0.00 86 1020.1
20260502113042 46 229 2.0 4.0 0.00 0.00 0.00 86 1019.8
20260502111539 46 245 2.0 3.0 0.00 0.00 0.00 86 1019.4
20260502110042 47 254 1.0 3.0 0.00 0.00 0.00 86 1019.2
20260502104539 47 261 1.0 3.0 0.00 0.00 0.00 86 1019.1
20260502103037 47 264 1.0 3.0 0.00 0.00 0.00 86 1019.0
20260502101543 46 273 0.0 2.0 0.00 0.00 0.00 86 1018.9
20260502091528 47 265 0.0 0.0 0.00 0.01 0.00 86 1018.7
20260502071517 50 265 0.0 0.0 0.00 0.01 0.00 86 1018.8
20260502070015 50 265 0.0 0.0 0.00 0.01 0.00 86 1018.9
20260502064531 50 265 0.0 0.0 0.00 0.01 0.00 86 1018.7
20260502063014 51 265 0.0 0.0 0.00 0.01 0.00 85 1018.8
20260502061510 51 265 0.0 0.0 0.00 0.01 0.00 85 1018.8
20260502060008 52 265 0.0 0.0 0.00 0.01 0.00 85 1018.8
20260502054507 52 265 0.0 0.0 0.00 0.01 0.00 84 1019.0
20260502053005 52 265 0.0 2.0 0.00 0.01 0.00 83 1019.1
20260502051504 53 88 1.0 2.0 0.00 0.01 0.00 82 1018.9
20260502050101 53 88 0.0 0.0 0.00 0.01 0.00 81 1018.7
20260502044557 54 88 0.0 0.0 0.00 0.01 0.01 78 1018.7
20260502043056 55 88 0.0 0.0 0.00 0.01 0.01 78 1018.7
20260502041554 56 88 1.0 3.0 0.00 0.01 0.01 78 1018.6
20260502040105 55 98 1.0 2.0 0.00 0.01 0.01 78 1018.6
20260502034555 55 98 0.0 0.0 0.00 0.01 0.01 79 1018.6
20260502033051 55 98 0.0 2.0 0.00 0.01 0.01 77 1018.5
20260502031552 56 100 2.0 5.0 0.00 0.01 0.01 77 1018.2
20260502030050 56 107 3.0 5.0 0.00 0.01 0.01 77 1018.1
20260502024547 56 100 1.0 3.0 0.00 0.01 0.01 76 1018.0
20260502023052 57 94 1.0 4.0 0.00 0.01 0.01 75 1017.8
20260502021544 57 86 2.0 5.0 0.00 0.01 0.01 74 1017.7
20260502020056 57 107 4.0 7.0 0.00 0.01 0.01 73 1017.5
20260502014549 58 88 2.0 5.0 0.00 0.01 0.01 73 1017.3
20260502013037 58 86 2.0 8.0 0.00 0.01 0.01 73 1016.8
20260502011538 58 92 3.0 5.0 0.00 0.01 0.01 73 1016.4
20260502010036 59 84 4.0 7.0 0.00 0.01 0.01 71 1016.3
20260502004536 59 101 5.0 13.0 0.00 0.01 0.01 70 1015.8
20260502003035 60 74 4.0 8.0 0.00 0.01 0.01 69 1015.6
20260502001555 60 77 6.0 11.0 0.00 0.01 0.01 66 1015.4
20260502000035 60 91 8.0 13.0 0.00 0.01 0.01 65 1015.2
20260501234533 61 70 7.0 13.0 0.00 0.01 0.01 65 1015.0
20260501233032 61 51 6.0 16.0 0.00 0.01 0.01 63 1015.0
20260501231537 61 53 7.0 12.0 0.00 0.01 0.01 63 1015.0
20260501230032 61 43 6.0 15.0 0.00 0.01 0.01 62 1014.7
20260501224534 61 51 9.0 15.0 0.00 0.01 0.01 60 1014.5
20260501223030 61 43 7.0 13.0 0.00 0.01 0.01 62 1014.5
20260501221529 61 36 8.0 12.0 0.00 0.01 0.01 63 1014.6
20260501220030 62 34 6.0 14.0 0.00 0.01 0.01 61 1014.8
20260501214529 62 37 6.0 11.0 0.00 0.02 0.01 59 1014.7
20260501213027 62 24 6.0 12.0 0.00 0.02 0.01 61 1014.5
20260501211526 62 355 5.0 10.0 0.00 0.02 0.01 62 1014.7
20260501210031 61 53 5.0 12.0 0.00 0.02 0.01 62 1014.7
20260501204524 61 348 5.0 10.0 0.00 0.03 0.01 61 1015.0